| time (UTC) | temp C | wind direction | speed KPH | gust KPH | rain 1hr cm | rain 24hr cm | rain mn cm | humidity % | barometer mb |
| 20260507060056 | -17 | 47 | 0.0 | 0.0 | 0.00 | 0.00 | 0.00 | 1011.0 | |
| 20260507054550 | -17 | 47 | 0.0 | 0.0 | 0.00 | 0.00 | 0.00 | 1010.9 | |
| 20260507053047 | -17 | 47 | 0.0 | 0.0 | 0.00 | 0.00 | 0.00 | 1010.8 | |
| 20260507051538 | -17 | 47 | 0.0 | 0.0 | 0.00 | 0.00 | 0.00 | 1010.8 | |
| 20260507050034 | -17 | 47 | 0.0 | 0.0 | 0.00 | 0.00 | 0.00 | 1010.8 | |
| 20260507044545 | -17 | 47 | 0.0 | 0.0 | 0.00 | 0.00 | 0.00 | 1010.6 | |
| 20260507043024 | -17 | 47 | 0.0 | 0.0 | 0.00 | 0.00 | 0.00 | 1010.6 | |
| 20260507041520 | -17 | 47 | 0.0 | 0.0 | 0.00 | 0.00 | 0.00 | 1010.6 | |
| 20260507040016 | -17 | 47 | 0.0 | 0.0 | 0.00 | 0.00 | 0.00 | 1010.5 | |
| 20260507034512 | -17 | 47 | 0.0 | 0.0 | 0.00 | 0.00 | 0.00 | 1010.5 | |
| 20260507033008 | -17 | 47 | 0.0 | 0.0 | 0.00 | 0.00 | 0.00 | 1010.4 | |
| 20260507031503 | -17 | 47 | 0.0 | 0.0 | 0.00 | 0.00 | 0.00 | 1010.4 | |
| 20260507030104 | -17 | 47 | 0.0 | 0.0 | 0.00 | 0.00 | 0.00 | 1010.4 | |
| 20260507024558 | -17 | 47 | 0.0 | 0.0 | 0.00 | 0.00 | 0.00 | 1010.3 | |
| 20260507023050 | -17 | 47 | 0.0 | 0.0 | 0.00 | 0.00 | 0.00 | 1010.3 | |
| 20260507021546 | -17 | 47 | 0.0 | 0.0 | 0.00 | 0.00 | 0.00 | 1010.2 | |
| 20260507020048 | -17 | 47 | 0.0 | 0.0 | 0.00 | 0.00 | 0.00 | 1010.1 | |
| 20260507014537 | -17 | 47 | 0.0 | 0.0 | 0.00 | 0.00 | 0.00 | 1010.1 | |
| 20260507013033 | -17 | 47 | 0.0 | 0.0 | 0.00 | 0.00 | 0.00 | 1010.1 | |
| 20260507011529 | -17 | 47 | 0.0 | 0.0 | 0.00 | 0.00 | 0.00 | 1010.1 | |
| 20260507010028 | -17 | 47 | 0.0 | 0.0 | 0.00 | 0.00 | 0.00 | 1010.1 | |
| 20260507004521 | -17 | 47 | 0.0 | 0.0 | 0.00 | 0.00 | 0.00 | 1010.1 | |
| 20260507003020 | -17 | 47 | 0.0 | 0.0 | 0.00 | 0.00 | 0.00 | 1010.2 | |
| 20260507001520 | -17 | 47 | 0.0 | 0.0 | 0.00 | 0.00 | 0.00 | 1010.1 | |
| 20260507000011 | -17 | 47 | 0.0 | 0.0 | 0.00 | 0.00 | 0.00 | 1010.2 | |
| 20260506234506 | -17 | 47 | 0.0 | 0.0 | 0.00 | 0.00 | 0.00 | 1010.1 | |
| 20260506233102 | -17 | 47 | 0.0 | 0.0 | 0.00 | 0.00 | 0.00 | 1010.1 | |
| 20260506231553 | -17 | 47 | 0.0 | 0.0 | 0.00 | 0.00 | 0.00 | 1010.0 | |
| 20260506230048 | -17 | 47 | 0.0 | 0.0 | 0.00 | 0.00 | 0.00 | 1010.1 | |
| 20260506224558 | -17 | 47 | 0.0 | 0.0 | 0.00 | 0.00 | 0.00 | 1010.0 | |
| 20260506223040 | -17 | 47 | 0.0 | 0.0 | 0.00 | 0.00 | 0.00 | 1010.0 | |
| 20260506221536 | -17 | 47 | 0.0 | 0.0 | 0.00 | 0.00 | 0.00 | 1009.8 | |
| 20260506220036 | -17 | 47 | 0.0 | 0.0 | 0.00 | 0.00 | 0.00 | 1009.8 | |
| 20260506214526 | -17 | 47 | 0.0 | 0.0 | 0.00 | 0.00 | 0.00 | 1009.7 | |
| 20260506213022 | -17 | 47 | 0.0 | 0.0 | 0.00 | 0.00 | 0.00 | 1009.7 | |
| 20260506211518 | -17 | 47 | 0.0 | 0.0 | 0.00 | 0.00 | 0.00 | 1009.6 | |
| 20260506210020 | -17 | 47 | 0.0 | 0.0 | 0.00 | 0.00 | 0.00 | 1009.5 | |
| 20260506204510 | -17 | 47 | 0.0 | 0.0 | 0.00 | 0.00 | 0.00 | 1009.5 | |
| 20260506203005 | -17 | 47 | 0.0 | 0.0 | 0.00 | 0.00 | 0.00 | 1009.3 | |
| 20260506201600 | -17 | 47 | 0.0 | 0.0 | 0.00 | 0.00 | 0.00 | 1009.3 | |
| 20260506200055 | -17 | 47 | 0.0 | 0.0 | 0.00 | 0.00 | 0.00 | 1009.1 | |
| 20260506194601 | -17 | 47 | 0.0 | 0.0 | 0.00 | 0.00 | 0.00 | 1009.0 | |
| 20260506193049 | -17 | 47 | 0.0 | 1.6 | 0.00 | 0.00 | 0.00 | 1008.9 | |
| 20260506191542 | -17 | 48 | 0.0 | 0.0 | 0.00 | 0.00 | 0.00 | 1008.7 | |
| 20260506190039 | -17 | 48 | 0.0 | 0.0 | 0.00 | 0.00 | 0.00 | 1008.6 | |
| 20260506184533 | -17 | 46 | 0.0 | 4.8 | 0.00 | 0.00 | 0.00 | 1008.5 | |
| 20260506183028 | -17 | 52 | 0.0 | 4.8 | 0.00 | 0.00 | 0.00 | 1008.4 | |
| 20260506181525 | -17 | 69 | 0.0 | 6.4 | 0.00 | 0.00 | 0.00 | 1008.4 | |
| 20260506180025 | -17 | 355 | 0.0 | 0.0 | 0.00 | 0.00 | 0.00 | 1008.2 | |
| 20260506174514 | -17 | 355 | 0.0 | 0.0 | 0.00 | 0.00 | 0.00 | 1008.0 | |
| 20260506173010 | -17 | 355 | 0.0 | 4.8 | 0.00 | 0.00 | 0.00 | 1008.0 | |
| 20260506171512 | -17 | 355 | 1.6 | 4.8 | 0.00 | 0.00 | 0.00 | 1008.0 | |
| 20260506170007 | -17 | 18 | 3.2 | 8.0 | 0.00 | 0.00 | 0.00 | 1008.0 | |
| 20260506164507 | -17 | 36 | 0.0 | 6.4 | 0.00 | 0.00 | 0.00 | 1007.9 | |
| 20260506163009 | -17 | 30 | 1.6 | 16.1 | 0.00 | 0.00 | 0.00 | 1007.9 | |
| 20260506161506 | -17 | 355 | 3.2 | 11.3 | 0.00 | 0.00 | 0.00 | 1007.9 | |
| 20260506160006 | -17 | 80 | 3.2 | 16.1 | 0.00 | 0.00 | 0.00 | 1007.8 | |
| 20260506154505 | -17 | 360 | 3.2 | 16.1 | 0.00 | 0.00 | 0.00 | 1007.7 | |
| 20260506153004 | -17 | 338 | 1.6 | 14.5 | 0.00 | 0.00 | 0.00 | 1007.7 | |
| 20260506151504 | -17 | 355 | 0.0 | 9.7 | 0.00 | 0.00 | 0.00 | 1007.8 | |
| 20260506150002 | -17 | 341 | 4.8 | 9.7 | 0.00 | 0.00 | 0.00 | 1007.8 | |
| 20260506144502 | -17 | 355 | 4.8 | 11.3 | 0.00 | 0.00 | 0.00 | 1007.9 | |
| 20260506143005 | -17 | 360 | 3.2 | 12.9 | 0.00 | 0.00 | 0.00 | 1007.8 | |
| 20260506141501 | -17 | 331 | 1.6 | 9.7 | 0.00 | 0.00 | 0.00 | 1007.7 | |
| 20260506140124 | -17 | 335 | 1.6 | 6.4 | 0.00 | 0.00 | 0.00 | 1007.9 | |
| 20260506134600 | -17 | 44 | 0.0 | 12.9 | 0.00 | 0.00 | 0.00 | 1007.8 | |
| 20260506133104 | -17 | 13 | 0.0 | 14.5 | 0.00 | 0.00 | 0.00 | 1007.9 | |
| 20260506131559 | -17 | 5 | 3.2 | 8.0 | 0.00 | 0.00 | 0.00 | 1007.9 | |
| 20260506130054 | -17 | 34 | 4.8 | 12.9 | 0.00 | 0.00 | 0.00 | 1008.0 | |
| 20260506124552 | -17 | 11 | 0.0 | 8.0 | 0.00 | 0.00 | 0.00 | 1007.9 | |
| 20260506123047 | -17 | 34 | 0.0 | 9.7 | 0.00 | 0.00 | 0.00 | 1007.8 | |
| 20260506121546 | -17 | 267 | 3.2 | 9.7 | 0.00 | 0.00 | 0.00 | 1007.7 | |
| 20260506120048 | -17 | 327 | 1.6 | 12.9 | 0.00 | 0.00 | 0.00 | 1007.8 | |
| 20260506114548 | -17 | 336 | 3.2 | 12.9 | 0.00 | 0.00 | 0.00 | 1007.8 | |
| 20260506113050 | -17 | 5 | 3.2 | 9.7 | 0.00 | 0.00 | 0.00 | 1007.7 | |
| 20260506111542 | -17 | 334 | 0.0 | 16.1 | 0.00 | 0.00 | 0.00 | 1007.8 | |
| 20260506110038 | -17 | 331 | 6.4 | 16.1 | 0.00 | 0.00 | 0.00 | 1007.8 | |
| 20260506104537 | -17 | 319 | 3.2 | 14.5 | 0.00 | 0.00 | 0.00 | 1007.8 | |
| 20260506103032 | -17 | 345 | 4.8 | 19.3 | 0.00 | 0.00 | 0.00 | 1007.8 | |
| 20260506101533 | -17 | 19 | 0.0 | 12.9 | 0.00 | 0.00 | 0.00 | 1007.6 | |
| 20260506100028 | -17 | 60 | 4.8 | 16.1 | 0.00 | 0.00 | 0.00 | 1007.8 | |
| 20260506094516 | -17 | 334 | 0.0 | 12.9 | 0.00 | 0.00 | 0.00 | 1007.8 | |
| 20260506093014 | -17 | 15 | 1.6 | 20.9 | 0.00 | 0.00 | 0.00 | 1007.8 | |
| 20260506091510 | -17 | 338 | 6.4 | 19.3 | 0.00 | 0.00 | 0.00 | 1007.8 | |
| 20260506090004 | -17 | 355 | 3.2 | 16.1 | 0.00 | 0.00 | 0.00 | 1007.7 | |
| 20260506084603 | -17 | 5 | 3.2 | 12.9 | 0.00 | 0.00 | 0.00 | 1007.6 | |
| 20260506083059 | -17 | 5 | 4.8 | 14.5 | 0.00 | 0.00 | 0.00 | 1007.5 | |
| 20260506081554 | -17 | 321 | 4.8 | 16.1 | 0.00 | 0.00 | 0.00 | 1007.6 | |
| 20260506073039 | -17 | 323 | 3.2 | 14.5 | 0.00 | 0.00 | 0.00 | 1007.5 | |
| 20260506071534 | -17 | 36 | 3.2 | 14.5 | 0.00 | 0.00 | 0.00 | 1007.5 | |
| 20260506061517 | -17 | 355 | 4.8 | 16.1 | 0.00 | 0.00 | 0.00 | 1007.1 |